Simultaneous Nadir Overpasses (SNOs) Predictions

Prediction of SNOs between NOAA-20 and METOP-B Satellite Orbit:

Table of predicted SNOs for the next 14.0 days since TLE Epoch: 2/2/2022
Index Date (NOAA-20) Time (NOAA-20) Lat,Lon (NOAA-20) SZA (NOAA-20 ) Date (METOP-B) Time (METOP-B) Lat,Lon (METOP-B) SZA (METOP-B ) Distance(km) Time Diff (sec)
1 02/15/2022 07:11:11 73.52, 62.30 86.52 02/15/2022 07:12:17 73.43, 65.24 86.25 93.62 66
2 02/15/2022 08:01:53 -73.40,-130.12 93.63 02/15/2022 08:03:01 -73.35,-127.61 93.84 80.23 68
3 02/15/2022 08:52:35 73.22, 37.60 86.16 02/15/2022 08:53:44 73.16, 39.30 85.98 55.00 69
4 02/15/2022 09:43:17 -73.10,-154.83 93.98 02/15/2022 09:44:28 -73.08,-153.55 94.10 41.74 71
5 02/15/2022 10:33:59 72.92, 12.88 85.80 02/15/2022 10:35:12 72.83, 13.27 85.67 15.79 73
6 02/15/2022 11:24:42 -72.85,-179.67 94.29 02/15/2022 11:25:55 -72.80,-179.46 94.37 8.73 73
7 02/15/2022 12:15:26 72.77, -12.17 85.61 02/15/2022 12:16:35 72.76, -12.22 85.59 1.86 69
8 02/15/2022 13:06:10 -72.75, 155.17 94.42 02/15/2022 13:07:17 -72.78, 155.15 94.41 3.23 67
9 02/15/2022 13:56:56 72.77, -37.55 85.58 02/15/2022 13:57:56 72.79, -37.50 85.59 2.77 60
10 02/15/2022 14:47:40 -72.75, 129.79 94.45 02/15/2022 14:48:39 -72.76, 129.77 94.45 1.07 59
11 02/15/2022 15:38:26 72.77, -62.92 85.56 02/15/2022 15:39:18 72.76, -62.89 85.54 1.21 52
12 02/15/2022 16:29:10 -72.75, 104.41 94.47 02/15/2022 16:30:01 -72.74, 104.38 94.50 2.07 51
13 02/15/2022 17:19:56 72.77, -88.30 85.54 02/15/2022 17:20:40 72.74, -88.27 85.50 2.82 44
14 02/15/2022 18:10:40 -72.76, 79.04 94.49 02/15/2022 18:11:22 -72.77, 79.10 94.50 2.50 42
15 02/15/2022 19:01:25 72.72,-113.57 85.46 02/15/2022 19:02:02 72.72,-113.66 85.46 2.90 37
16 02/15/2022 19:52:10 -72.76, 53.66 94.52 02/15/2022 19:52:44 -72.75, 53.72 94.54 2.07 34
17 02/15/2022 20:42:55 72.72,-138.95 85.43 02/15/2022 20:43:23 72.75,-138.94 85.46 3.64 28
18 02/15/2022 21:33:39 -72.71, 28.39 94.60 02/15/2022 21:34:06 -72.72, 28.33 94.58 2.86 27
19 02/15/2022 22:24:25 72.72,-164.32 85.41 02/15/2022 22:24:45 72.73,-164.32 85.41 1.12 20
20 02/15/2022 23:15:09 -72.71, 3.02 94.62 02/15/2022 23:15:28 -72.70, 2.95 94.62 2.30 19
21 02/16/2022 00:05:55 72.72, 170.30 85.39 02/16/2022 00:06:07 72.71, 170.29 85.37 1.41 12
22 02/16/2022 00:56:39 -72.71, -22.36 94.64 02/16/2022 00:56:49 -72.73, -22.33 94.62 2.90 10
23 02/16/2022 01:47:25 72.72, 144.92 85.36 02/16/2022 01:47:28 72.74, 145.01 85.37 3.38 3
24 02/16/2022 02:38:09 -72.71, -47.74 94.67 02/16/2022 02:38:11 -72.71, -47.72 94.67 0.67 2



Historial Predications of SNOs between NOAA-20 and METOP-B
